K7RHT Weather Reports


time (UTC)temp
C
wind
direction
speed
KPH
gust
KPH
rain 1hr
cm
rain 24hr
cm
rain mn
cm
humidity
%
barometer
mb
20260510104548 20 261 3.2 12.9 0.00 0.00 0.00 87 1013.3
20260510103044 20 143 3.2 9.7 0.00 0.00 0.00 87 1013.4
20260510101545 20 154 4.8 9.7 0.00 0.00 0.00 87 1013.3
20260510094555 20 188 4.8 16.1 0.00 0.00 0.00 85 1013.1
20260510093044 20 242 6.4 16.1 0.00 0.00 0.00 85 1013.1
20260510091543 20 171 4.8 12.9 0.00 0.00 0.00 85 1013.2
20260510090051 20 178 4.8 12.9 0.00 0.00 0.00 85 1013.1
20260510084607 20 149 3.2 12.9 0.00 0.00 0.00 84 1013.1
20260510083041 20 166 3.2 12.9 0.00 0.00 0.00 83 1013.0
20260510081550 21 224 4.8 14.5 0.00 0.00 0.00 82 1012.9
20260510080044 21 147 8.0 12.9 0.00 0.00 0.00 82 1013.0
20260510074547 21 165 3.2 9.7 0.00 0.00 0.00 82 1013.2
20260510073044 21 144 3.2 8.0 0.00 0.00 0.00 81 1013.2
20260510071551 21 157 4.8 14.5 0.00 0.00 0.00 80 1013.1
20260510070054 21 136 4.8 9.7 0.00 0.00 0.00 80 1013.2
20260510064538 21 107 3.2 12.9 0.00 0.00 0.00 79 1013.2
20260510063049 22 147 3.2 9.7 0.00 0.00 0.00 78 1013.4
20260510061545 22 138 4.8 11.3 0.00 0.00 0.00 77 1013.3
20260510060044 22 153 4.8 9.7 0.00 0.00 0.00 77 1013.2
20260510054538 22 146 3.2 8.0 0.00 0.00 0.00 76 1013.3
20260510053045 22 153 3.2 8.0 0.00 0.00 0.00 75 1013.3
20260510051547 23 156 4.8 9.7 0.00 0.00 0.00 74 1013.2
20260510050056 23 140 4.8 9.7 0.00 0.00 0.00 75 1013.2
20260510044553 22 141 1.6 6.4 0.00 0.00 0.00 75 1013.1
20260510043048 23 0 0.0 4.8 0.00 0.00 0.00 75 1013.2
20260510041546 23 140 3.2 6.4 0.00 0.00 0.00 73 1013.3
20260510040055 23 134 3.2 6.4 0.00 0.00 0.00 72 1013.0
20260510034547 23 132 4.8 11.3 0.00 0.00 0.00 71 1012.9
20260510033100 24 127 4.8 9.7 0.00 0.00 0.00 69 1012.8
20260510031556 24 113 4.8 9.7 0.00 0.00 0.00 67 1012.6
20260510030048 25 126 4.8 11.3 0.00 0.00 0.00 65 1012.4
20260510024544 25 138 6.4 12.9 0.00 0.00 0.00 63 1012.1
20260510023044 26 103 4.8 12.9 0.00 0.00 0.00 60 1011.9
20260510021544 26 171 3.2 11.3 0.00 0.00 0.00 58 1011.7
20260510020051 26 116 1.6 12.9 0.00 0.00 0.00 55 1011.4
20260510014550 27 147 1.6 9.7 0.00 0.00 0.00 52 1011.2
20260510013042 28 157 3.2 8.0 0.00 0.00 0.00 49 1010.9
20260510011545 28 143 3.2 4.8 0.00 0.00 0.00 49 1010.8
20260510010046 28 142 1.6 6.4 0.00 0.00 0.00 48 1010.6
20260510004544 29 155 0.0 3.2 0.00 0.00 0.00 47 1010.6
20260510003045 30 153 1.6 6.4 0.00 0.00 0.00 46 1010.5
20260510001546 30 0 0.0 4.8 0.00 0.00 0.00 44 1010.4
20260509234554 31 59 1.6 6.4 0.00 0.00 0.00 43 1010.3
20260509233047 32 149 1.6 8.0 0.00 0.00 0.00 39 1010.2
20260509231547 31 192 4.8 12.9 0.00 0.00 0.00 40 1010.2
20260509230047 32 147 3.2 11.3 0.00 0.00 0.00 39 1010.3
20260509224545 34 40 1.6 6.4 0.00 0.00 0.00 35 1010.4
20260509223049 34 114 1.6 8.0 0.00 0.00 0.00 36 1010.3
20260509221547 33 151 4.8 11.3 0.00 0.00 0.00 36 1010.3
20260509220047 33 255 3.2 8.0 0.00 0.00 0.00 35 1010.3
20260509214544 35 28 3.2 9.7 0.00 0.00 0.00 32 1010.4
20260509213053 35 100 1.6 9.7 0.00 0.00 0.00 31 1010.6
20260509211546 34 22 0.0 11.3 0.00 0.00 0.00 36 1010.7
20260509210053 34 273 3.2 11.3 0.00 0.00 0.00 37 1010.9
20260509204552 34 128 1.6 9.7 0.00 0.00 0.00 39 1011.1
20260509203044 34 0 3.2 14.5 0.00 0.00 0.00 39 1011.5
20260509201547 32 0 0.0 9.7 0.00 0.00 0.00 41 1011.8
20260509200049 33 142 1.6 14.5 0.00 0.00 0.00 40 1012.0
20260509194540 33 238 3.2 11.3 0.00 0.00 0.00 43 1012.0
20260509193046 32 236 4.8 14.5 0.00 0.00 0.00 48 1012.1
20260509191543 32 296 3.2 12.9 0.00 0.00 0.00 46 1012.3
20260509190042 31 233 1.6 14.5 0.00 0.00 0.00 47 1012.4
20260509184557 30 346 3.2 11.3 0.00 0.00 0.00 52 1012.8
20260509183045 31 188 1.6 11.3 0.00 0.00 0.00 54 1013.0
20260509181550 30 173 4.8 11.3 0.00 0.00 0.00 56 1013.3
20260509180046 30 0 3.2 12.9 0.00 0.00 0.00 55 1013.5
20260509174545 28 208 3.2 11.3 0.00 0.00 0.00 59 1013.6
20260509173057 28 232 3.2 9.7 0.00 0.00 0.00 58 1013.8
20260509171544 27 211 3.2 19.3 0.00 0.00 0.00 67 1013.8
20260509170046 28 140 3.2 14.5 0.00 0.00 0.00 63 1013.9
20260509164545 27 149 3.2 17.7 0.00 0.00 0.00 68 1014.0
20260509163043 26 244 6.4 12.9 0.00 0.00 0.00 71 1014.0
20260509161544 25 196 3.2 17.7 0.00 0.00 0.00 75 1014.3
20260509160047 25 217 4.8 16.1 0.00 0.00 0.00 75 1013.9
20260509154544 25 182 9.7 20.9 0.00 0.00 0.00 75 1013.9
20260509153050 25 163 3.2 12.9 0.00 0.00 0.00 75 1013.7
20260509151544 24 161 4.8 11.3 0.00 0.00 0.00 76 1013.5
20260509150046 22 263 3.2 9.7 0.00 0.00 0.00 83 1013.4
20260509144604 22 0 1.6 12.9 0.00 0.00 0.00 86 1013.4
20260509143103 20 169 4.8 14.5 0.00 0.00 0.00 87 1013.6
20260509141545 20 175 1.6 12.9 0.00 0.00 0.00 88 1013.5
20260509140047 20 0 0.0 1.6 0.00 0.00 0.00 90 1013.8
20260509134559 20 29 0.0 6.4 0.00 0.00 0.00 90 1014.2
20260509133049 20 0 1.6 4.8 0.00 0.00 0.00 92 1014.0
20260509131545 19 0 0.0 3.2 0.00 0.00 0.00 93 1013.7
20260509130054 19 103 0.0 6.4 0.00 0.00 0.00 94 1013.9
20260509124545 19 0 0.0 4.8 0.00 0.00 0.00 94 1013.6
20260509123048 19 119 0.0 8.0 0.00 0.00 0.00 94 1013.8
20260509121601 18 61 1.6 9.7 0.00 0.00 0.00 94 1013.7
20260509120044 19 51 4.8 17.7 0.00 0.00 0.00 93 1013.4
20260509114542 19 34 4.8 20.9 0.00 0.00 0.00 93 1013.6
20260509113048 19 55 4.8 14.5 0.00 0.00 0.00 93 1013.7
20260509111600 20 51 4.8 19.3 0.00 0.00 0.00 94 1014.0
20260509110039 20 22 8.0 22.5 0.00 0.00 0.00 94 1013.9